Weather History for Ft Lauderdale, FL

Change the Weather History Date:

Wednesday, October 17, 2012

  Actual Average Record
Temperature  
Mean Temperature 79 °F 80 °F  
Max Temperature 86 °F 86 °F 92 °F (1976)
Min Temperature 72 °F 75 °F 55 °F (1913)
Degree Days  
Heating Degree Days 0 0  
Month to date heating degree days 0 0  
Since 1 July heating degree days 0 0  
Cooling Degree Days 14 16  
Month to date cooling degree days 283 283  
Year to date cooling degree days 3997 3995  
Growing Degree Days 28 (Base 50)    
Moisture  
Dew Point 72 °F    
Average Humidity 79    
Maximum Humidity 93    
Minimum Humidity 65    
Precipitation  
Precipitation 0.11 in 0.20 in 3.90 in (1944)
Month to date precipitation 7.17 4.47  
Year to date precipitation 58.09 54.13  
Snow  
Snow 0.00 in - - ()
Month to date snowfall 0.0  
Since 1 July snowfall 0.0  
Since 1 September snowfall 0.0  
Snow Depth 0.00 in    
Sea Level Pressure  
Sea Level Pressure 29.85 in    
Wind  
Wind Speed 7 mph (SE)    
Max Wind Speed 20 mph    
Max Gust Speed 24 mph    
Visibility 10 miles    
Events Rain    
T = Trace of Precipitation, MM = Missing Value Source: NWS Daily Summary

Daily Weather History Graph

Daily Weather History Graph

Search for Another Location

Airport:

Trip Planner

Search our weather history database for the weather conditions in past years. The results will help you decide how hot, cold, wet, or windy it might be!

Date:

Astronomy

Oct. 17, 2012 Rise Set
Actual Time 7:20 AM EDT 6:50 PM EDT
Civil Twilight 6:57 AM EDT 7:13 PM EDT
Nautical Twilight 6:30 AM EDT 7:40 PM EDT
Astronomical Twilight 6:03 AM EDT 8:07 PM EDT
Moon 9:36 AM EDT (10/17) 8:43 PM EDT (10/17)
Length of Visible Light 12h 16m
Length of Day
11h 29m
Waxing Crescent, 7% of the Moon is Illuminated
Oct 17
Waxing Crescent
Oct 21
First Quarter
Oct 29
Full
Nov 6
Last Quarter
Nov 13
New

Hourly Weather History & Observations

Time (EDT) Temp. Heat Index Dew Point Humidity Pressure Visibility Wind Dir Wind Speed Gust Speed Precip Events Conditions
12:53 AM 78.1 °F - 71.1 °F 79% 29.83 in 10.0 mi ESE 5.8 mph - N/A   Partly Cloudy
1:53 AM 78.1 °F - 71.1 °F 79% 29.82 in 10.0 mi SE 3.5 mph - N/A   Scattered Clouds
2:53 AM 79.0 °F - 70.0 °F 74% 29.82 in 10.0 mi Calm Calm - N/A   Partly Cloudy
3:53 AM 77.0 °F - 71.1 °F 82% 29.82 in 10.0 mi Calm Calm - N/A   Partly Cloudy
4:53 AM 77.0 °F - 72.0 °F 84% 29.83 in 10.0 mi Calm Calm - N/A   Mostly Cloudy
5:53 AM 77.0 °F - 72.0 °F 84% 29.84 in 10.0 mi NW 4.6 mph - N/A   Mostly Cloudy
6:53 AM 77.0 °F - 72.0 °F 84% 29.85 in 10.0 mi Calm Calm - N/A   Mostly Cloudy
7:53 AM 77.0 °F - 73.0 °F 88% 29.86 in 10.0 mi Calm Calm - N/A   Partly Cloudy
8:53 AM 79.0 °F - 72.0 °F 79% 29.88 in 10.0 mi ESE 3.5 mph - N/A   Scattered Clouds
9:53 AM 82.0 °F 86.7 °F 72.0 °F 71% 29.88 in 10.0 mi SE 5.8 mph - N/A   Scattered Clouds
10:53 AM 84.0 °F 89.0 °F 71.1 °F 65% 29.88 in 10.0 mi SE 8.1 mph - N/A   Scattered Clouds
11:53 AM 84.9 °F 90.7 °F 72.0 °F 65% 29.88 in 10.0 mi SE 11.5 mph - N/A   Scattered Clouds
12:53 PM 84.0 °F 89.6 °F 72.0 °F 67% 29.87 in 10.0 mi SSE 9.2 mph - N/A   Partly Cloudy
1:53 PM 82.9 °F 87.0 °F 70.0 °F 65% 29.86 in 10.0 mi SE 11.5 mph - N/A   Clear
2:53 PM 82.9 °F 88.0 °F 72.0 °F 69% 29.83 in 10.0 mi SSE 8.1 mph - N/A   Partly Cloudy
3:53 PM 84.9 °F 91.4 °F 73.0 °F 67% 29.83 in 10.0 mi SSE 9.2 mph - N/A   Mostly Cloudy
4:53 PM 82.0 °F 87.4 °F 73.0 °F 74% 29.82 in 10.0 mi South 8.1 mph - N/A   Mostly Cloudy
5:53 PM 82.0 °F 87.4 °F 73.0 °F 74% 29.82 in 10.0 mi SSE 10.4 mph - N/A   Mostly Cloudy
6:53 PM 81.0 °F 85.8 °F 73.0 °F 77% 29.82 in 10.0 mi SSE 6.9 mph - N/A   Mostly Cloudy
7:53 PM 78.1 °F - 73.9 °F 87% 29.84 in 6.0 mi SW 6.9 mph - 0.05 in Rain Light Rain
8:26 PM 73.4 °F - 71.6 °F 94% 29.87 in 10.0 mi NNW 17.3 mph - 0.01 in   Mostly Cloudy
8:53 PM 73.0 °F - 71.1 °F 93% 29.89 in 10.0 mi North 16.1 mph - 0.06 in Rain Light Rain
9:53 PM 73.0 °F - 70.0 °F 90% 29.89 in 10.0 mi NE 10.4 mph - 0.00 in   Overcast
10:53 PM 75.0 °F - 71.1 °F 87% 29.89 in 10.0 mi NE 11.5 mph - N/A   Mostly Cloudy
11:53 PM 77.0 °F - 71.1 °F 82% 29.88 in 10.0 mi ENE 8.1 mph - N/A   Mostly Cloudy